Terug naar catalogus

STARLINK-31051

ActiefCommunicatieVLEO
NORAD 58719·PAYLOAD·🇺🇸 United States

Gelanceerd Jan 3, 2024 vanaf Vandenberg Space Force Base

Loading…

Volgende Passages (komende 24 uur)

TLE

VersSource: CelesTrak SupGP

Epoch: Sep 15, 2026, 01:44 UTC

1 58719C 24002Q   26258.07270833 -.00017976  00000+0 -53097-3 0  2587
2 58719  53.1585  68.7569 0000861  90.6254 210.6258 15.34409060    18

Volg STARLINK-31051 in realtime met AllMySat

Download on the App Store